sat.trackr.live / text

‹ back to catalog

STARLINK-37373

NORAD 68848 · 2026-094K

PAYLOAD ACTIVE UNKNOWN

§ Identity

Operator
Country
US
Launch date
2026-04-26
Launch site
AFWTR
Launch vehicle
Mass (kg)
RCS (m²)

Purposes: comms

External: N2YO · Heavens-Above · Gunter

§ Orbital elements

Epoch: 2026-09-19T07:21:28.123200Z

Period
93.91 min
Inclination
97.2859°
Eccentricity
0.0001106
Mean motion
15.33447111 rev/d
Perigee alt
464.8 km
Apogee alt
466.3 km
Semi-major
6,843.7 km
B*
4.4446e-4
RAAN
275.4297°
Arg perigee
94.8732°
Mean anomaly
265.2637°
Rev number
2,247

§ Raw data

STARLINK-373731 68848U 26094K   26262.30657550  .00014302  00000+0  44446-3 0  99982 68848  97.2859 275.4297 0001106  94.8732 265.2637 15.33447111 22479

JSON: /api/v1/satellites/68848 · /tle

For live sub-satellite position, see the globe view (requires WebGL).

§ Visibility from observer

Set your observer location to see the next 7 days of passes ≥ 10°. The values pass through the URL so the page stays shareable.

No JS? Fill the form by hand. The geolocation button needs JavaScript.